When you browse on this site, cookies collect data to enhance your experience and personalize the content and advertising you see.
Visit our Privacy Policy to learn more. By continuing to use the site, you agree to this use of cookies and data.
  • In Schweiz
  • Länderverzeichnis
  • Für 7 Tage
  • Wassertemperatur
  • Wetterkarte
  • Widgets
  • user-avatar
    Anmelden

    Stündliche Wetter Thimbu

    Heute, 18 September, Mittwoch

    Zeit Temperatur Niederschläge Wind Luftdruck Luftfeuchtigkeit
    00:00 +11°C° 0 mm 1 m/S 526 mmHg 95%
    01:00 +11°C° 0.4 mm 1 m/S 526 mmHg 95%
    02:00 +10°C° 0.4 mm 0 m/S 526 mmHg 94%
    03:00 +10°C° 0.4 mm 0 m/S 526 mmHg 94%
    04:00 +10°C° 0.5 mm 0 m/S 526 mmHg 95%
    05:00 +10°C° 0.5 mm 0 m/S 526 mmHg 95%
    06:00 +10°C° 0 mm 0 m/S 527 mmHg 95%
    07:00 +10°C° 0.2 mm 0 m/S 527 mmHg 94%
    08:00 +11°C° 0.2 mm 0 m/S 528 mmHg 92%
    09:00 +12°C° 0.2 mm 0 m/S 529 mmHg 90%
    10:00 +13°C° 0.6 mm 0 m/S 529 mmHg 86%
    11:00 +16°C° 0.6 mm 1 m/S 530 mmHg 82%
    12:00 +18°C° 0 mm 1 m/S 531 mmHg 77%
    13:00 +16°C° 0.8 mm 1 m/S 530 mmHg 81%
    14:00 +15°C° 0.8 mm 1 m/S 528 mmHg 85%
    15:00 +14°C° 0.8 mm 1 m/S 527 mmHg 90%
    16:00 +13°C° 0.5 mm 1 m/S 527 mmHg 91%
    17:00 +13°C° 0.5 mm 1 m/S 527 mmHg 93%
    18:00 +10°C° 0 mm 0 m/S 527 mmHg 95%
    19:00 +10°C° 0 mm 0 m/S 527 mmHg 94%
    20:00 +10°C° 0 mm 1 m/S 527 mmHg 93%
    21:00 +10°C° 0 mm 1 m/S 527 mmHg 92%
    22:00 +10°C° 0 mm 1 m/S 527 mmHg 91%
    23:00 +9°C° 0 mm 1 m/S 527 mmHg 90%

    Morgen, 19 September, Donnerstag

    Zeit Temperatur Niederschläge Wind Luftdruck Luftfeuchtigkeit
    00:00 +9°C° 0 mm 1 m/S 526 mmHg 89%
    01:00 +9°C° 0 mm 1 m/S 526 mmHg 88%
    02:00 +9°C° 0 mm 1 m/S 526 mmHg 88%
    03:00 +9°C° 0 mm 1 m/S 526 mmHg 88%
    04:00 +9°C° 0 mm 1 m/S 526 mmHg 87%
    05:00 +8°C° 0 mm 1 m/S 526 mmHg 87%
    06:00 +8°C° 0 mm 1 m/S 526 mmHg 86%
    07:00 +11°C° 0 mm 1 m/S 528 mmHg 80%
    08:00 +13°C° 0 mm 1 m/S 529 mmHg 74%
    09:00 +16°C° 0 mm 1 m/S 531 mmHg 68%
    10:00 +18°C° 0.3 mm 1 m/S 531 mmHg 66%
    11:00 +18°C° 0.3 mm 2 m/S 531 mmHg 63%
    12:00 +19°C° 0.3 mm 2 m/S 531 mmHg 61%
    13:00 +18°C° 0.6 mm 2 m/S 530 mmHg 66%
    14:00 +17°C° 0.6 mm 2 m/S 529 mmHg 70%
    15:00 +17°C° 0.6 mm 2 m/S 528 mmHg 75%
    16:00 +15°C° 0.4 mm 1 m/S 527 mmHg 82%
    17:00 +14°C° 0.4 mm 1 m/S 526 mmHg 89%
    18:00 +11°C° 0.4 mm 0 m/S 526 mmHg 95%
    19:00 +11°C° 0.1 mm 0 m/S 526 mmHg 95%
    20:00 +11°C° 0.1 mm 1 m/S 526 mmHg 94%
    21:00 +11°C° 0.1 mm 1 m/S 527 mmHg 93%
    22:00 +10°C° 0 mm 1 m/S 527 mmHg 92%
    23:00 +10°C° 0 mm 1 m/S 526 mmHg 91%

    übermorgen, 20 September, Freitag

    Zeit Temperatur Niederschläge Wind Luftdruck Luftfeuchtigkeit
    00:00 +10°C° 0 mm 1 m/S 526 mmHg 91%
    01:00 +10°C° 0 mm 1 m/S 526 mmHg 90%
    02:00 +9°C° 0 mm 1 m/S 526 mmHg 90%
    03:00 +9°C° 0 mm 1 m/S 525 mmHg 89%
    04:00 +9°C° 0 mm 1 m/S 525 mmHg 89%
    05:00 +9°C° 0 mm 1 m/S 525 mmHg 89%
    06:00 +8°C° 0 mm 1 m/S 525 mmHg 89%
    07:00 +11°C° 0 mm 1 m/S 527 mmHg 82%
    08:00 +14°C° 0 mm 1 m/S 529 mmHg 75%
    09:00 +16°C° 0 mm 1 m/S 530 mmHg 69%
    10:00 +17°C° 0.4 mm 2 m/S 530 mmHg 69%
    11:00 +17°C° 0.4 mm 2 m/S 530 mmHg 70%
    12:00 +17°C° 0.4 mm 2 m/S 530 mmHg 70%
    13:00 +17°C° 0.8 mm 2 m/S 529 mmHg 73%
    14:00 +17°C° 0.8 mm 2 m/S 528 mmHg 76%
    15:00 +16°C° 0.8 mm 2 m/S 527 mmHg 79%
    16:00 +15°C° 0.5 mm 1 m/S 527 mmHg 84%
    17:00 +14°C° 0.5 mm 1 m/S 526 mmHg 90%
    18:00 +12°C° 0.5 mm 1 m/S 525 mmHg 95%
    19:00 +12°C° 0.1 mm 1 m/S 526 mmHg 95%
    20:00 +11°C° 0.1 mm 1 m/S 526 mmHg 95%
    21:00 +11°C° 0.1 mm 1 m/S 526 mmHg 95%
    22:00 +10°C° 0 mm 0 m/S 526 mmHg 95%
    23:00 +9°C° 0 mm 0 m/S 526 mmHg 94%

    21 September, Samstag

    Zeit Temperatur Niederschläge Wind Luftdruck Luftfeuchtigkeit
    00:00 +9°C° 0 mm 0 m/S 526 mmHg 94%
    01:00 +9°C° 0 mm 0 m/S 525 mmHg 94%
    02:00 +9°C° 0 mm 0 m/S 525 mmHg 94%
    03:00 +9°C° 0 mm 0 m/S 525 mmHg 94%
    04:00 +9°C° 0.1 mm 0 m/S 525 mmHg 94%
    05:00 +9°C° 0.1 mm 0 m/S 525 mmHg 94%
    06:00 +9°C° 0.1 mm 0 m/S 525 mmHg 94%
    07:00 +10°C° 0.1 mm 0 m/S 526 mmHg 89%
    08:00 +12°C° 0.1 mm 0 m/S 527 mmHg 84%
    09:00 +15°C° 0.1 mm 1 m/S 529 mmHg 78%
    10:00 +15°C° 0.7 mm 1 m/S 529 mmHg 78%
    11:00 +16°C° 0.7 mm 1 m/S 528 mmHg 77%
    12:00 +16°C° 0.7 mm 1 m/S 528 mmHg 76%
    13:00 +16°C° 0.7 mm 1 m/S 528 mmHg 77%
    14:00 +16°C° 0.7 mm 1 m/S 527 mmHg 79%
    15:00 +15°C° 0.7 mm 1 m/S 526 mmHg 80%
    16:00 +14°C° 0.4 mm 1 m/S 526 mmHg 85%
    17:00 +13°C° 0.4 mm 1 m/S 525 mmHg 90%
    18:00 +11°C° 0.4 mm 0 m/S 525 mmHg 95%
    19:00 +10°C° 0 mm 0 m/S 525 mmHg 95%
    20:00 +10°C° 0 mm 0 m/S 525 mmHg 94%
    21:00 +10°C° 0 mm 1 m/S 525 mmHg 94%
    22:00 +9°C° 0.1 mm 0 m/S 525 mmHg 94%
    23:00 +9°C° 0.1 mm 0 m/S 526 mmHg 94%

    22 September, Sonntag

    Zeit Temperatur Niederschläge Wind Luftdruck Luftfeuchtigkeit
    00:00 +9°C° 0.1 mm 0 m/S 526 mmHg 94%
    01:00 +9°C° 0.3 mm 0 m/S 526 mmHg 95%
    02:00 +9°C° 0.3 mm 0 m/S 526 mmHg 95%
    03:00 +10°C° 0.3 mm 0 m/S 526 mmHg 96%
    04:00 +9°C° 0.5 mm 0 m/S 526 mmHg 96%
    05:00 +9°C° 0.5 mm 0 m/S 526 mmHg 96%
    06:00 +9°C° 0.5 mm 0 m/S 526 mmHg 97%
    07:00 +10°C° 0.3 mm 0 m/S 527 mmHg 93%
    08:00 +11°C° 0.3 mm 0 m/S 528 mmHg 90%
    09:00 +12°C° 0.3 mm 0 m/S 529 mmHg 87%
    10:00 +14°C° 0.5 mm 1 m/S 529 mmHg 83%
    11:00 +15°C° 0.5 mm 1 m/S 529 mmHg 79%
    12:00 +16°C° 0.5 mm 1 m/S 530 mmHg 76%
    13:00 +16°C° 0.6 mm 2 m/S 529 mmHg 77%
    14:00 +16°C° 0.6 mm 2 m/S 528 mmHg 79%
    15:00 +15°C° 0.6 mm 2 m/S 527 mmHg 81%
    16:00 +14°C° 0.5 mm 1 m/S 527 mmHg 86%
    17:00 +13°C° 0.5 mm 1 m/S 526 mmHg 91%
    18:00 +12°C° 0.5 mm 1 m/S 525 mmHg 96%
    19:00 +11°C° 0.1 mm 1 m/S 526 mmHg 96%
    20:00 +10°C° 0.1 mm 0 m/S 526 mmHg 96%
    21:00 +10°C° 0.1 mm 0 m/S 527 mmHg 95%
    22:00 +10°C° 0.2 mm 0 m/S 527 mmHg 96%
    23:00 +11°C° 0.2 mm 1 m/S 527 mmHg 96%

    23 September, Montag

    Zeit Temperatur Niederschläge Wind Luftdruck Luftfeuchtigkeit
    00:00 +11°C° 0.2 mm 1 m/S 527 mmHg 96%
    01:00 +10°C° 0.1 mm 1 m/S 526 mmHg 96%
    02:00 +10°C° 0.1 mm 1 m/S 526 mmHg 95%
    03:00 +9°C° 0.1 mm 0 m/S 526 mmHg 95%
    04:00 +9°C° 0 mm 0 m/S 526 mmHg 94%
    05:00 +8°C° 0 mm 0 m/S 526 mmHg 94%
    06:00 +8°C° 0 mm 0 m/S 526 mmHg 93%
    07:00 +11°C° 0 mm 1 m/S 527 mmHg 87%
    08:00 +13°C° 0 mm 1 m/S 529 mmHg 81%
    09:00 +15°C° 0 mm 1 m/S 530 mmHg 74%
    10:00 +16°C° 0.4 mm 1 m/S 530 mmHg 72%
    11:00 +17°C° 0.4 mm 2 m/S 530 mmHg 71%
    12:00 +17°C° 0.4 mm 2 m/S 530 mmHg 69%
    13:00 +17°C° 0.6 mm 2 m/S 529 mmHg 75%
    14:00 +16°C° 0.6 mm 2 m/S 528 mmHg 80%
    15:00 +15°C° 0.6 mm 2 m/S 527 mmHg 86%
    16:00 +14°C° 0.6 mm 2 m/S 527 mmHg 90%
    17:00 +13°C° 0.6 mm 1 m/S 527 mmHg 94%
    18:00 +11°C° 0.6 mm 1 m/S 526 mmHg 98%
    19:00 +11°C° 0.5 mm 1 m/S 527 mmHg 98%
    20:00 +10°C° 0.5 mm 0 m/S 527 mmHg 98%
    21:00 +9°C° 0.5 mm 0 m/S 527 mmHg 97%
    22:00 +9°C° 0.7 mm 0 m/S 527 mmHg 97%
    23:00 +9°C° 0.7 mm 0 m/S 527 mmHg 97%
    Mehr zeigen